Minot, ND

7:48 AM CST on November 12, 2019 (GMT -0600)
Minot International

Weather History for KMOT - October, 2019

Change the Weather History Date:

Sunday, October 20, 2019

  Actual Average Record
Temperature  
Mean Temperature 41 °F 43 °F  
Max Temperature 51 °F 53 °F 80 °F (1947)
Min Temperature 30 °F 32 °F 11 °F (1905)
Degree Days  
Heating Degree Days 24 22  
Month to date heating degree days 440 361  
Since 1 July heating degree days 684 681  
Cooling Degree Days 0 0  
Month to date cooling degree days 0 0  
Year to date cooling degree days 459 444  
Moisture  
Dew Point 33 °F    
Average Humidity 71    
Maximum Humidity 89    
Minimum Humidity 52    
Precipitation  
Precipitation 0.00 in 0.03 in 0.80 in (1908)
Month to date precipitation 0.98 0.83  
Year to date precipitation 20.44 15.73  
Sea Level Pressure  
Sea Level Pressure 29.79 in    
Wind  
Wind Speed 4 mph (WNW)    
Max Wind Speed 12 mph    
Max Gust Speed 16 mph    
Visibility 10 miles    
Events      
T = Trace of Precipitation, MM = Missing Value Source: NWS Daily Summary

Daily Weather History Graph

Daily Weather History Graph

Search for Another Location

Airport or City:

Astronomy

Oct. 20, 2019 Rise Set
Actual Time 8:11 AM CDT 6:47 PM CDT
Civil Twilight 7:40 AM CDT 7:18 PM CDT
Nautical Twilight 7:03 AM CDT 7:54 PM CDT
Astronomical Twilight 6:27 AM CDT 8:30 PM CDT
Moon 11:39 PM CDT (10/20) 3:01 PM CDT (10/20)
Length of Visible Light 11h 38m
Length of Day
10h 35m
Waning Gibbous, 59% of the Moon is Illuminated
Oct 20
Waning Gibbous
Oct 21
Last Quarter
Oct 27
New
Nov 4
First Quarter
Nov 12
Full

Hourly Weather History & Observations

Time (CDT) Temp. Windchill Dew Point Humidity Pressure Visibility Wind Dir Wind Speed Gust Speed Precip Events Conditions
12:54 AM 37.0 °F - 30.9 °F 79% 29.64 in 10.0 mi Calm Calm - N/A   Clear
1:54 AM 36.0 °F - 30.9 °F 82% 29.65 in 10.0 mi Calm Calm - N/A   Clear
2:54 AM 36.0 °F 33.3 °F 30.9 °F 82% 29.67 in 10.0 mi SW 3.5 mph - N/A   Clear
3:54 AM 37.9 °F 34.4 °F 30.9 °F 76% 29.68 in 10.0 mi SW 4.6 mph - N/A   Clear
4:54 AM 34.0 °F - 28.9 °F 82% 29.69 in 10.0 mi Calm Calm - N/A   Clear
5:54 AM 34.0 °F 28.8 °F 28.9 °F 82% 29.70 in 10.0 mi SSW 5.8 mph - N/A   Clear
6:54 AM 34.0 °F 31.0 °F 28.0 °F 79% 29.72 in 10.0 mi SW 3.5 mph - N/A   Clear
7:54 AM 33.1 °F - 28.0 °F 82% 29.74 in 10.0 mi Calm Calm - N/A   Clear
8:54 AM 32.0 °F 26.4 °F 27.0 °F 82% 29.75 in 10.0 mi NW 5.8 mph - N/A   Clear
9:54 AM 34.0 °F 31.0 °F 30.0 °F 85% 29.78 in 10.0 mi SSW 3.5 mph - N/A   Clear
10:54 AM 39.0 °F - 32.0 °F 76% 29.80 in 10.0 mi Calm Calm - N/A   Clear
11:54 AM 48.0 °F - 39.0 °F 71% 29.79 in 10.0 mi NW 3.5 mph - N/A   Overcast
12:54 PM 46.9 °F - 37.0 °F 68% 29.82 in 10.0 mi Variable 3.5 mph - N/A   Clear
1:54 PM 50.0 °F - 34.0 °F 54% 29.82 in 10.0 mi Calm Calm - N/A   Scattered Clouds
2:54 PM 50.0 °F - 36.0 °F 59% 29.82 in 10.0 mi Calm Calm - N/A   Mostly Cloudy
3:54 PM 50.0 °F - 37.0 °F 61% 29.82 in 10.0 mi WNW 3.5 mph - N/A   Overcast
4:54 PM 50.0 °F - 39.9 °F 68% 29.83 in 10.0 mi Calm Calm - N/A   Overcast
5:54 PM 48.9 °F - 37.0 °F 64% 29.84 in 10.0 mi NW 8.1 mph - N/A   Overcast
6:54 PM 46.9 °F - 37.0 °F 68% 29.85 in 10.0 mi NW 6.9 mph - N/A   Overcast
7:54 PM 46.9 °F - 36.0 °F 66% 29.87 in 10.0 mi NNW 8.1 mph - N/A   Overcast
8:54 PM 46.0 °F 41.9 °F 36.0 °F 68% 29.89 in 10.0 mi NNW 8.1 mph - N/A   Overcast
9:54 PM 44.1 °F 42.5 °F 36.0 °F 73% 29.90 in 10.0 mi NE 3.5 mph - N/A   Overcast
10:54 PM 44.1 °F 40.8 °F 35.1 °F 71% 29.91 in 10.0 mi North 5.8 mph - N/A   Overcast
11:54 PM 43.0 °F 37.7 °F 33.1 °F 68% 29.90 in 10.0 mi NW 9.2 mph - N/A   Overcast